Location: Aalen
(48.8330°N, 10.1000°E)
Time: 19:22:48
(UTC+02:00)

S-56A Canister/Altair - Pass Details

Date: 08 August 2021
Orbit: 632 x 2500 km, 38.9° (Epoch: 19 September)

Event Time Altitude Azimuth Distance (km) Brightness Sun altitude
Rises 21:35:06 0° 278° (W) 6,139 13.4 -7.7°
Reaches altitude 10° 21:42:18 10° 257° (WSW) 5,160 12.3 -8.6°
Maximum altitude 21:48:07 13° 233° (SW) 4,782 11.8 -9.4°
Drops below altitude 10° 21:53:44 10° 210° (SSW) 4,893 11.5 -10.1°
Sets 22:00:14 0° 187° (S) 5,576 11.6 -11.0°
